TITAN 3C TRANSTAGE DEB, 1642

Orbit data source: Space-Track

TITAN 3C TRANSTAGE DEB, 1642 is space debris in LEO originally from a launch on Fri, 15 Oct 1965 UTC launched from the Air Force Eastern Test Range (AFETR). Debris objects in space refer to the collection of defunct objects orbiting the Earth. Examples of debris include non-operational satellites, rocket bodies, and fragments generated from explosions, collisions, or faulty payload assembly.

Loading next visibility...
Identifier
1642, 1965-082D
Orbit
LEO
Country
Flag of USUS
Related business
Manufacturer
Unknown
Mission
Spacecraft
Bus & Motor
Unknown
Mass
Unknown
Launch date (UTC)
1965-10-15 (60 years ago)
Launch vehicle
Unknown
Launch site
Air Force Eastern Test Range (AFETR)
Object type
Payload
Rocket body
Debris
Shape & HBR
Unknown shape, 1.5 m
Radar Cross Section
Large (>1 m²)

Expand to show TLE details & history
Last TLE update: 10 hours ago

TLE from 10 hours ago
0 TITAN 3C TRANSTAGE DEB
1  1642U 65082D   25296.12027326  .00001765  00000-0  20188-3 0  9992
2  1642  32.0924 197.8430 0023765 276.7348  83.0598 14.83901838202335
Epoch: 2025-10-23T02:53Z
TLE epoch observation values (Epoch: 2025-10-23T02:53:11.609Z)
Latitude
-0.00004°
Longitude
122.76048°
Altitude
613.699 km
Speed
7.556 km/s
True Right ascension
13h 11m 22s
True Declination
0° 00' 00"
Sunlit
Object was in daylight at epoch
Visualization orbit readout
Latitude
Unknown
Longitude
Unknown
Altitude
Unknown
Speed
Unknown
Apparent Right ascension
Unknown
Apparent Declination
Unknown
Sunlit
N/A
Visualization observer readout
Local Sidereal Time
07:56:44
Azimuth
Unknown
Elevation
Unknown
Doppler factor
Unknown
Orbital elements
Apogee altitude
637.304 km
Perigee altitude
604.038 km
Semi-major axis
6,998.808 km
Eccentricity
0.00238
Inclination
32.0924°
RAAN
197.843°
Arg. of periapsis
276.7348°
True anomaly
83.33023°
Mean anomaly
83.0598°
Eccentric anomaly
83.195°
Mean motion
3.70687 °/min
Orbital period
97.12 mins
BSTAR
0.00020188

Documentation

Showing up to 5 results
|